Regional Weather Roundup
Issued by NWS Grand Forks, ND

Home | Current Version | Previous Version | Graphics & Text | Print | Product List | Glossary On
Versions: 1 2 3 4 5 6 7 8 9 10 11 12 13 14 15 16 17 18 19 20 21 22 23 24 25 26 27 28 29 30 31 32 33 34 35 36 37 38 39 40 41 42 43 44 45 46 47 48 49 50
000
ASUS43 KFGF 160110
RWRFGF
PRAIRIE TO PINES  WEATHER ROUNDUP
NATIONAL WEATHER SERVICE EASTERN NORTH DAKOTA/GRAND FORKS ND
700 PM CST MON JAN 15 2018

 **SATELLITE DATA USED TO AUGMENT SKY COVER AT AUTOMATED STATIONS**
 *****  WEATHER ACROSS EASTERN NORTH DAKOTA  *****

CITY           SKY/WX    TMP DP  RH WIND       PRES   REMARKS
GRAND FORKS    CLOUDY    -8 -13  78 N20G29    30.83R WCI -32
GRAND FRKS AFB FAIR     -10 -18  69 N14       30.84R WCI -32
GRAND FRKS NWS   N/A     -9 N/A N/A N15         N/A  WCI -31
DEVILS LAKE    FAIR     -13 -19  75 NW13      30.82R WCI -34
FARGO          MIX PCPN  -9 -14  78 N23G31    30.80R VSB 1   WCI -35
WAHPETON ARPT  CLOUDY    -9 -17  70 N17G25    30.76R WCI -33
$$

 ***** WEATHER ACROSS CENTRAL AND WESTERN NORTH DAKOTA  *****

CITY           SKY/WX    TMP DP  RH WIND       PRES   REMARKS
BISMARCK       FAIR      -9 -16  71 NW8       30.84F WCI -25
MINOT          FAIR     -10 -17  71 SW6       30.83F WCI -23
JAMESTOWN      FAIR      -9 -15  75 N20       30.77R WCI -34
MINOT AFB      FAIR     -18 -24  73 W9        30.83F WCI -38
GARRISON         N/A    -14 -21  71 NW10      30.80F WCI -34
WILLISTON      FAIR     -17 -24  70 CALM      30.83F
DICKINSON      FAIR     -15 -21  74 W7        30.73S WCI -31
HETTINGER      FAIR     -15 -21  74 W9        30.74S WCI -34
$$

 *****  OTHER AIRPORT OBSERVATIONS IN OUR AREA  *****

CITY           SKY/WX    TMP DP  RH WIND       PRES   REMARKS
WALHALLA       FAIR     -11 -18  70 NW9       30.88S WCI -29
GRAFTON AIRPOR FAIR      -9 -17  70 N22       30.87R WCI -35
VALLEY CITY AR FAIR     -11 -17  77 NW18      30.78R WCI -36
CANDO          FAIR     -17 -22  76 NW8       30.84S WCI -34
CAVALIER APRT    N/A    -11 -18  70 N18       30.86S WCI -36
GWINNER          N/A     -8 -13  77 N21G26    30.74R WCI -32
SHEYENNE NWR     N/A     -7 -14  71 N10       29.95S WCI -25
ROLLA          FAIR     -13 -20  70 NW13      30.78S WCI -34
 ***** THE ABOVE OBSERVATIONS ARE NON NWS ARE NOT QUALITY
       CONTROLLED AND MAY MIS-REPORT RAIN FOR SNOW...
$$

  *****  WEATHER ACROSS NORTHERN MINNESOTA  *****

CITY           SKY/WX    TMP DP  RH WIND       PRES   REMARKS
FLAG ISLAND    FAIR      -6 -11  77 N14       30.74R WCI -26
WARROAD        FAIR      -8 -15  71 NW8       30.75R WCI -23
ROSEAU         FAIR      -8 -13  77 NW12      30.76S WCI -27
HALLOCK        FAIR     -11 -17  77 N20       30.83S WCI -36
THF RVR FALLS  FAIR     -13 -19  75 N12       30.76R WCI -33
BAUDETTE       CLOUDY    -4  -9  79 NW13      30.68R WCI -23
WASKISH        CLOUDY    -2  -8  78 N6        30.68R WCI -14
CROOKSTON      CLOUDY    -9 -15  77 N18       30.80S FOG     WCI -33
STEPHEN NDAWN    N/A    -11 -17  77 N16         N/A  WCI -34
GREENBUSH NDAW   N/A    -15 -20  76 N10         N/A  WCI -35
$$
  *****  WEATHER ACROSS CENTRAL AND WEST MINNESOTA  *****

CITY           SKY/WX    TMP DP  RH WIND       PRES   REMARKS
FOSSTON        CLOUDY   -11 -18  70 N14       30.71R WCI -33
BEMIDJI        CLOUDY    -3  -8  79 N14       30.64R WCI -22
PARK RAPIDS    CLOUDY    -6 -13  71 N13       30.60R WCI -25
ELBOW LAKE     FAIR     -13 -19  76 NW15G25   30.67R HAZE    WCI -36
WADENA         MOCLDY    -9 -17  70 NW7       30.61R WCI -24
DETROIT LAKES  CLOUDY   -13 -18  77 NW17      30.67R HAZE    WCI -38
MOORHEAD       CLOUDY   -11 -17  77 N16       30.79R HAZE    WCI -34
FERGUS FALLS   CLOUDY   -13 -18  77 N17G24    30.74S WCI -38
MORRIS MN      CLOUDY   -11 -18  70 NW22G30   30.65S HAZE    WCI -38
STAPLES        FAIR      -8 -15  71 N9        30.59R WCI -25
$$
  *****  WEATHER ELSEWHERE ACROSS MINNESOTA  *****

CITY           SKY/WX    TMP DP  RH WIND       PRES   REMARKS
DULUTH         LGT SNOW   6   2  83 N17       30.44R BLWGSNOWWCI -13
INTRNTL FALLS  CLOUDY     0  -7  72 N7        30.65R WCI -13
ELY            FLURRIES   3   0  85 N5        30.53R WCI  -6
CLOQUET        LGT SNOW   5   0  78 NW15G23   30.47R WCI -13
WHEATON        CLOUDY   -11 -18  70 NW20G26   30.75R WCI -36
BRAINERD       CLOUDY    -2 -10  69 N15       30.57R WCI -22
HIBBING        CLOUDY     1  -4  79 N14       30.53R WCI -17
ALEXANDRIA     MOCLDY   -10 -16  74 NW16G24   30.59R WCI -33
SAINT CLOUD    MOCLDY    -1  -8  72 N12       30.55R WCI -18
MINNEAPOLIS    FLURRIES   2  -4  76 NW12      30.52R WCI -15
$$

  *****  WEATHER ACROSS SOUTH DAKOTA  *****

CITY           SKY/WX    TMP DP  RH WIND       PRES   REMARKS
SIOUX FALLS    FAIR      -5 -12  72 NW20G29   30.62R WCI -28
BROOKINGS      CLOUDY    -7 -14  71 N20       30.60S WCI -31
WATERTOWN      CLOUDY    -7 -13  75 NW22G31   30.62R WCI -32
HURON          CLOUDY    -3 -11  68 N24G31    30.73R WCI -28
SISSETON         N/A     -6 -11  79 N20       30.72R WCI -30
ABERDEEN       MOCLDY    -5 -13  68 N17       30.77S WCI -27
MITCHELL       CLOUDY    -1  -9  68 NW21      30.73R WCI -24
PIERRE         FAIR      -2 -12  62 NW18      30.77R WCI -24
MOBRIDGE       FAIR      -5 -15  62 N18       30.76R WCI -28
RAPID CITY     FAIR      -3 -10  72 N15       30.68R WCI -23
$$

  *****  SOME WEATHER IN NEARBY STATES *****

CITY           SKY/WX    TMP DP  RH WIND       PRES   REMARKS
GLASGOW MT     FAIR     N/A N/A N/A E14       30.73F
GREAT FALLS MT FAIR       7   4  87 E7        30.40F WCI  -5
CHEYENNE WY    FAIR       6  -3  66 N7        30.42R WCI  -6
SCOTTSBLUFF NE FAIR       7  -3  64 N5        30.60R WCI  -2
OMAHA NE       FAIR      -1 -10  65 NW17      30.66R WCI -22
DES MOINES IA  CLOUDY     0  -8  69 NW20G29   30.55R WCI -22
DAVENPORT IA   FAIR      12  -4  48 W20G31    30.43R WCI  -6
CHICAGO IL     LGT SNOW  12   7  80 W13       30.27R WCI  -3
EAU CLAIRE WI  LGT SNOW   9   3  77 NW10      30.40R WCI  -5
LA CROSSE WI   LGT SNOW   7   2  80 NW15      30.40R WCI -10
$$

  *****  SOME NATIONAL WEATHER *****

CITY           SKY/WX    TMP DP  RH WIND       PRES   REMARKS
LA GUARDIA NY  FAIR      26  17  68 NE9       30.54S WCI  17
RALEIGH NC     FAIR      26  16  65 CALM      30.46S
ATLANTA GA     FAIR      42  27  55 SE3       30.38S
NEW ORLEANS LA FAIR      49  42  77 E3        30.37S
OKLAHOMA CITY  CLOUDY    19   0  43 N20G30    30.61R WCI   3
ALBUQUERQUE NM MOCLDY    36  22  56 E29G35    30.22R
SALT LAKE CITY MOCLDY    38  31  76 CALM      30.29R
LOS ANGELES CA CLOUDY    59  55  87 SW7       30.08F
BOISE ID       FAIR      44  34  67 SE7       30.23F
SEATTLE WA     MOCLDY    59  37  44 E17       29.87S
$$

*** WEATHER ACROSS MANITOBA...SASKATCHEWAN AND ONTARIO ***
                ***ONTARIO***

CITY           SKY/WX    TMP DP  RH WIND       PRES   REMARKS
GERALDTON      FLURRIES   9   7  92 N9        30.56R WCI  -5
THUNDER BAY    FLURRIES  14  10  85 N8        30.55R WCI   3
SIOUX LOOKOUT  FLURRIES   0  -4  85 N7        30.66R WCI -13
TORONTO        LGT SNOW  18  14  86 NE8       30.34F VSB 3/4 WCI   7
BIG TROUT LK   CLEAR    -15 -20  76 W6        30.67F WCI -29
PICKLE LAKE    CRYSTALS -11 -15  84 NW6       30.67S WCI -25
DRYDEN         CLOUDY    -2  -8  78 N7        30.65R WCI -16
KENORA         CLEAR     -8 -11  84 N10       30.70R WCI -26
$$
                *** MANITOBA***

CITY           SKY/WX    TMP DP  RH WIND       PRES   REMARKS
BRANDON        CLEAR    -17 -24  70 NW8       30.84F WCI -34
DAUPHIN        CLEAR     -9 -18  64 W9        30.83F WCI -27
ISLAND LAKE    PTCLDY   -11 -18  70 W9        30.73F WCI -29
PILOT MOUND      N/A    -13 -20  70 NW6         N/A  WCI -27
THE PAS        PTCLDY    -8 -17  65 SW6       30.73F WCI -21
THOMPSON       CRYSTALS  -8 -15  71 SW9       30.61F WCI -25
WINNIPEG       PTCLDY   -17 -24  70 NW8       30.89S WCI -34
LYNN LAKE      CLOUDY     0  -6  78 SW16      30.44F WCI -21
CHURCHILL      CLOUDY    -4 -11  71 SW14G20   30.37F WCI -24
GILLAM         CLOUDY    -9 -17  70 SW14G21   30.57F WCI -31
$$
                ***SASKATCHEWAN***

CITY           SKY/WX    TMP DP  RH WIND       PRES   REMARKS
ESTEVAN        PTCLDY   -13 -20  70 SW6       30.80F WCI -27
KINDERSLEY     CLEAR      1  -8  66 SE8       30.47F WCI -12
LLOYDMINSTER   PTCLDY     0  -8  71 S14       30.42F WCI -19
PRINCE ALBERT  PTCLDY    -9 -15  77 SE5       30.68F WCI -21
REGINA         PTCLDY    -8 -15  71 SE12      30.73F WCI -27
YORKTON        PTCLDY    -9 -15  77 S8        30.75F WCI -26
N. BATTLEFORD  CLEAR     -4 -15  59 SE14      30.58F WCI -24
LA RONGE       MOCLDY    -2  -9  71 S6        30.55F WCI -14
SASKATOON      CLEAR     -2 -11  65 S12       30.67F WCI -20
SWIFT CURRENT  CLEAR     -2 -13  60 S21G30    30.51F WCI -25
$$
NOTE: THESE ARE AUTOMATED STATIONS WITH LIMITED QUALITY CONTROL
      "FAIR" INDICATES FEW OR NO CLOUDS BELOW 12,000 FEET WITH NO
      SIGNIFICANT WEATHER AND/OR OBSTRUCTIONS TO VISIBILITY.
      SKY/WX - SKY CONDITION AND SIGNIFICANT WEATHER.
      TMP - AIR TEMPERATURE.    DP   - DEWPOINT TEMPERATURE.
      RH  - RELATIVE HUMIDITY.  PRES - PRESSURE.
      HX  - HEAT INDEX.         WCI  - WIND CHILL INDEX.
$



USA.gov is the U.S. government's official web portal to all federal, state and local government web resources and services.